Simultaneous Nadir Overpasses (SNOs) Predictions

Prediction of SNOs between GOES-16 and METOP-C Satellite Orbit:

Table of predicted SNOs for the next 14.0 days since TLE Epoch: 6/14/2024
Index Date Time (GOES-16) GOES-16 Lat,Lon METOP-C Lat,Lon Distance(km) Time Diff (sec)
1 06/15/2024 02:25:25 -0.05, -75.20 0.33, -73.54 189.13 80
2 06/16/2024 14:41:37 0.04, -75.21 0.70, -78.10 329.54 80
3 06/17/2024 14:23:39 0.05, -75.21 -0.41, -73.10 240.04 80
4 06/19/2024 02:40:02 -0.04, -75.22 -0.58, -77.71 283.72 80
5 06/20/2024 02:22:04 -0.04, -75.23 0.53, -72.72 285.86 80
6 06/21/2024 14:38:16 0.04, -75.24 0.49, -77.28 232.55 80
7 06/22/2024 14:20:17 0.04, -75.24 -0.62, -72.29 337.10 80
8 06/24/2024 02:39:20 -0.03, -75.25 -0.41, -76.88 186.21 80
9 06/25/2024 02:16:01 -0.03, -75.26 0.71, -71.89 383.72 80
10 06/26/2024 14:34:54 0.02, -75.28 0.31, -76.45 133.80 80
11 06/27/2024 14:16:55 0.02, -75.30 -0.81, -71.46 436.71 80
